Location: *
(42.8667°S, 157.1667°W)
Time: 00:54:41
(UTC+00:00)

Daily predictions for brighter satellites

Satellite Brightness Start Highest point End
(mag) Time Altitude Azimuth Time Altitude Azimuth Time Altitude Azimuth
SL-16 R/B 4.3 04:45:47 10° SW 04:50:52 34° WNW 04:55:56 10° NNW
Cosmos 1818 3.7 04:47:24 10° SW 04:52:52 88° WNW 04:58:17 10° NNE
STARLINK-1024 4.0 04:49:30 10° WNW 04:53:41 69° SSW 04:57:55 10° SE
Cosmos 2266 Rocket 4.0 04:50:12 10° N 04:56:16 66° E 05:02:20 10° SSE
CZ-2C R/B 4.2 04:52:21 10° NE 04:56:35 39° ESE 05:00:49 10° S
Okean-O 3.3 04:52:46 10° SSE 04:56:52 33° E 05:00:54 10° NNE
STARLINK-29 4.0 04:55:24 10° WSW 04:58:32 45° NW 05:01:37 10° NNE
STARLINK-1035 4.1 04:54:28 10° WNW 04:58:38 64° SSW 05:02:51 10° SE
Cosmos 1470 3.5 04:55:25 10° S 04:59:04 33° ESE 05:02:37 10° NE
STARLINK-1039 4.4 04:56:40 10° NNW 05:00:26 34° NE 05:04:15 10° ESE
Cosmos 1867 3.6 04:56:43 10° NNW 05:02:02 62° ENE 05:07:24 10° SE
IRS-1C Rocket 4.1 04:57:32 10° SSE 05:02:53 66° ENE 05:08:09 10° N
Cosmos 1758 4.0 04:59:20 10° S 05:03:06 34° ESE 05:06:50 10° NE
STARLINK-1032 4.2 04:59:31 10° WNW 05:03:40 59° SSW 05:07:51 10° SE
STARLINK-1045 4.3 05:01:32 10° NNW 05:05:23 37° NE 05:09:17 10° ESE
Aureole 3 4.3 05:05:17 10° SSE 05:07:58 20° ESE 05:10:16 11° ENE
Cosmos 1939 Rocket 4.1 05:05:07 10° SE 05:08:27 22° E 05:11:43 10° NE
STARLINK-1011 4.3 05:04:31 10° WNW 05:08:39 55° SSW 05:12:49 10° SE
Lacrosse 5 rocket 3.9 05:06:39 10° SW 05:08:42 13° S 05:10:42 10° SSE
STARLINK-1050 4.2 05:06:26 10° NNW 05:10:22 41° NE 05:14:19 10° ESE
Cosmos 1603 3.9 05:06:47 10° SSW 05:12:37 80° WNW 05:18:22 10° NNE
ATLAS 3B R/B 3.2 05:05:37 10° NW 05:12:59 71° SW 05:20:28 10° SSE
STARLINK-1036 4.4 05:09:33 10° WNW 05:13:39 51° SSW 05:17:47 10° SE
STARLINK-1055 4.0 05:11:19 10° NNW 05:15:19 45° NE 05:19:05 12° ESE
Cosmos 1242 Rocket 4.1 05:14:13 10° NE 05:16:31 16° E 05:18:51 10° SE
Cosmos 1536 Rocket 3.6 05:14:10 10° N 05:18:24 54° E 05:22:43 10° SSE
Cosmos 1733 4.1 05:15:21 10° SSW 05:19:11 53° W 05:22:56 10° N
STARLINK-1022 3.9 05:16:14 10° NNW 05:20:17 49° NE 05:23:52 13° ESE
Cosmos 2315 Rocket 4.0 05:14:07 10° S 05:20:24 69° E 05:26:36 10° NNE
YAOGAN 1 3.4 05:17:14 10° SE 05:21:06 29° E 05:24:56 10° NNE
CORIOLIS 4.5 05:17:53 10° S 05:23:19 74° WSW 05:28:41 10° NNW
Cosmos 1455 Rocket 3.9 05:19:44 10° SSW 05:24:05 55° W 05:28:21 10° N
STARLINK-1042 3.8 05:21:09 10° NW 05:25:15 54° NE 05:28:39 15° ESE
FengYun 1-2 T 4.2 05:19:58 10° SSE 05:25:41 67° ENE 05:31:16 10° N
STARLINK-1056 3.7 05:26:05 10° NW 05:30:13 59° NE 05:33:26 16° ESE
Cosmos 1726 3.2 05:28:02 10° SSE 05:31:12 25° ESE 05:32:08 22° E
CZ-2D R/B 3.9 05:28:26 10° SSE 05:32:07 35° E 05:35:43 10° NNE
Cosmos 1707 2.7 05:28:44 10° N 05:32:38 62° E 05:36:36 10° SSE
Cosmos 407 Rocket 4.1 05:27:56 10° S 05:33:02 39° ESE 05:36:42 17° NE
Cosmos 1844 Rocket 3.3 05:28:58 10° NNE 05:33:49 31° ENE 05:38:44 10° SE
STARLINK-1054 3.6 05:31:02 10° NW 05:35:10 65° NE 05:38:13 18° ESE
Cosmos 1025 Rocket 3.0 05:32:07 10° N 05:36:26 88° WSW 05:40:48 10° S
STARLINK-1062 3.6 05:35:59 10° NW 05:40:08 71° NE 05:43:00 20° ESE
Meteor 2-15 Rocket 4.4 05:36:37 10° S 05:42:52 77° E 05:49:01 10° NNE
YAOGAN 6 4.2 05:40:18 10° S 05:43:37 37° WSW 05:46:54 10° NW
SL-24 R/B - RUBIN 2 3.7 05:40:00 10° SW 05:44:13 68° WNW 05:48:16 11° NNE
MOS 1 Rocket 3.6 05:39:48 10° NNE 05:45:06 62° ESE 05:50:14 10° S
STARLINK-1053 3.5 05:40:56 10° NW 05:45:07 78° NE 05:47:47 22° ESE
Cosmos 1953 2.4 05:41:42 10° S 05:45:45 56° E 05:48:58 15° NNE
Cosmos 1271 Rocket 3.2 05:43:31 10° NNE 05:47:02 35° E 05:50:36 10° SSE
STARLINK-1061 3.5 05:45:52 10° NW 05:50:03 84° NE 05:52:32 24° SE
Cosmos 2263 Rocket 3.4 05:45:40 10° NW 05:50:59 42° WSW 05:56:20 10° SSE
Envisat 4.4 05:46:42 10° S 05:51:31 40° WSW 05:56:16 10° NW
USA 215 3.2 05:46:28 10° SE 05:53:04 66° NE 05:59:37 10° NW
STARLINK-43 3.8 05:49:29 10° SW 05:53:09 47° SSE 05:54:05 38° ESE
Cosmos 1371 Rocket 4.0 05:48:49 10° N 05:53:55 57° ENE 05:59:03 10° SSE
STARLINK-1067 3.6 05:50:50 10° NW 05:55:03 89° SSW 05:57:19 27° SE
Cosmos 1726 Rocket 4.5 05:51:35 10° SSE 05:55:09 29° ESE 05:55:09 29° ESE
Cosmos 1624 Rocket 4.0 05:54:45 10° N 05:59:59 58° ENE 06:05:17 10° SSE
STARLINK-1058 3.6 05:55:50 10° NW 06:00:02 83° SW 06:02:07 29° SE
CSL-04 Debris 4.2 05:55:07 10° SSE 06:00:36 60° ENE 06:06:03 10° N
Cosmos 614 Rocket 3.9 05:55:26 10° SSW 06:00:40 78° ESE 06:04:16 20° NNE
DMSP B5D2-2 4.4 05:58:33 10° N 06:03:48 69° WNW 06:09:10 10° SSW
Meteor 2-5 Rocket 4.2 06:03:31 34° ENE 06:04:07 35° E 06:09:12 10° SSE
STARLINK-1043 3.7 06:00:49 10° WNW 06:05:01 77° SW 06:06:53 32° SE
STARLINK-1065 3.7 06:03:01 10° WNW 06:07:12 74° SW 06:09:00 33° SE
ATLAS 5 CENTAUR R/B 3.2 06:07:22 10° SW 06:12:07 36° WNW 06:16:03 11° N
STARLINK-80 4.4 06:09:13 10° SW 06:12:46 33° SSE 06:12:55 33° SSE
STARLINK-1063 3.9 06:10:48 10° WNW 06:14:59 66° SSW 06:16:27 38° SE
Cosmos 1844 3.8 06:10:31 10° N 06:16:10 56° ENE 06:21:53 10° SSE
STARLINK-1064 4.0 06:15:49 10° WNW 06:19:58 61° SSW 06:21:15 40° SSE
CZ-2C R/B 3.2 06:15:15 10° N 06:20:30 59° W 06:25:57 10° SSW
Cosmos 1606 Rocket 3.4 06:17:03 10° S 06:21:26 69° E 06:21:39 68° ENE
CZ-4 R/B 2.7 06:18:14 10° S 06:22:16 43° WSW 06:26:11 10° NW
STARLINK-1041 4.2 06:20:48 10° WNW 06:24:56 57° SSW 06:26:00 43° SSE
USA 267 3.6 06:23:09 36° E 06:25:27 50° SSE 06:31:48 10° SW
SAR-Lupe-2 4.2 06:27:46 47° NW 06:28:22 54° WNW 06:31:58 10° SSW
Cosmos 2056 Rocket 3.5 06:24:22 10° NNW 06:29:31 82° WSW 06:34:50 10° SSE
Cosmos 1023 Rocket 4.4 06:24:24 10° SSW 06:29:45 88° ESE 06:31:12 50° NNE
STARLINK-1038 4.3 06:25:50 10° WNW 06:29:57 53° SSW 06:30:48 44° SSE
STARLINK-1046 4.4 06:30:51 10° WNW 06:34:56 49° SSW 06:35:34 45° S
Ariane Rocket 4.2 06:30:11 10° SSE 06:32:44 28° SE 06:32:44 28° SE
Cosmos 1190 Rocket 4.2 06:32:09 10° SSW 06:37:28 71° WNW 06:39:13 42° N
CSL-04 Rocket 4.0 06:32:24 10° S 06:37:59 69° WSW 06:43:26 10° NNW
STARLINK-1039 4.5 06:35:52 10° WNW 06:39:56 46° SSW 06:40:21 44° S
Gbstr 26 Del rocket 4.1 06:40:29 10° NW 06:47:08 85° NE 06:50:00 43° ESE
Lacrosse 5 rocket 3.8 06:47:17 10° SSW 06:49:05 14° S 06:49:05 14° S
Cosmos 1242 Rocket 4.4 06:47:49 10° NW 06:51:06 31° WSW 06:54:28 10° S
Cosmos 2228 3.6 06:47:06 10° SSW 06:51:03 56° WSW 06:51:03 56° WSW
H-2A R/B 3.0 06:50:49 10° SSE 06:54:08 38° SSE 06:54:08 38° SSE
Cosmos 2058 Rocket 4.4 06:55:05 10° S 06:57:39 34° S 06:57:39 34° S
Cosmos 676 Rocket 4.2 06:58:40 10° SSW 07:03:49 69° W 07:03:49 69° W
Cosmos 1140 Rocket 4.4 07:02:44 10° SSW 07:07:45 44° WNW 07:08:32 41° NW
Cosmos 1844 Rocket 3.9 07:12:19 10° NW 07:17:34 40° WSW 07:22:52 10° SSE
COSMOS 2406 4.0 07:12:15 10° SSW 07:16:15 43° S 07:16:15 43° S
Cosmos 2082 Rocket 4.0 07:21:47 10° S 07:24:15 22° SSE 07:24:15 22° SSE
USA 215 4.1 07:33:00 30° SSE 07:35:52 46° SSW 07:42:06 10° W
CZ-2C R/B 4.2 07:34:22 10° S 07:38:44 44° SSW 07:38:44 44° SSW
Cosmos 1833 Rocket 4.4 07:53:28 10° SSW 07:55:57 27° SSW 07:55:57 27° SSW
USA 267 4.2 08:10:30 41° WSW 08:10:30 41° WSW 08:14:54 10° SW
